AEZ370 LICJ-LIMC

Flight info

Callsign AEZ370
Flight time 1h 16m
Altitude 37000
Route GIANO DCT ELB DCT MEBUR
Aircraft B738/M-SDE2E3FGHIJ1RWXY/LB1

Departure

Time 2026-05-07 16:24
Airport Falcone–Borsellino Airport (LICJ)

Arrival

Time 2026-05-07 17:41
Airport Milan Malpensa International Airport (LIMC)
Time Latitude Longitude Altitude Speed Heading
2026-05-07 15:44 38.18528 13.10559 64 ft 0 kts 337°
2026-05-07 16:15 38.18514 13.10567 57 ft 2 kts 336°
2026-05-07 16:15 38.18499 13.10575 56 ft 2 kts 336°
2026-05-07 16:15 38.18484 13.10583 57 ft 2 kts 341°
2026-05-07 16:16 38.18468 13.10586 57 ft 2 kts 26°
2026-05-07 16:16 38.18457 13.10573 57 ft 1 kts 64°
2026-05-07 16:16 38.18455 13.10568 55 ft 0 kts 67°
2026-05-07 16:19 38.18468 13.10606 55 ft 12 kts 66°
2026-05-07 16:19 38.18491 13.10674 62 ft 8 kts 66°
2026-05-07 16:19 38.18496 13.10691 61 ft 0 kts 66°
2026-05-07 16:19 38.18505 13.10732 64 ft 10 kts 89°
2026-05-07 16:20 38.18484 13.10822 60 ft 11 kts 110°
2026-05-07 16:20 38.18462 13.10915 62 ft 11 kts 122°
2026-05-07 16:20 38.18428 13.10999 64 ft 13 kts 78°
2026-05-07 16:20 38.18466 13.11120 58 ft 16 kts 66°
2026-05-07 16:21 38.18510 13.11245 57 ft 15 kts 65°
2026-05-07 16:21 38.18551 13.11366 61 ft 15 kts 67°
2026-05-07 16:21 38.18595 13.11500 58 ft 18 kts 67°
2026-05-07 16:21 38.18612 13.11643 65 ft 11 kts 97°
2026-05-07 16:22 38.18606 13.11704 61 ft 0 kts 97°
2026-05-07 16:22 38.18606 13.11707 62 ft 3 kts 97°
2026-05-07 16:22 38.18597 13.11796 67 ft 14 kts 97°
2026-05-07 16:23 38.18562 13.11885 63 ft 12 kts 151°
2026-05-07 16:23 38.18506 13.11846 71 ft 7 kts 246°
2026-05-07 16:23 38.18505 13.11842 71 ft 0 kts 248°
2026-05-07 16:23 38.18482 13.11771 66 ft 38 kts 247°
2026-05-07 16:24 38.18250 13.11098 65 ft 125 kts 246°
2026-05-07 16:24 38.17828 13.09834 318 ft 172 kts 246°
2026-05-07 16:24 38.17334 13.08423 1288 ft 180 kts 246°
2026-05-07 16:24 38.16831 13.06954 2306 ft 178 kts 249°
2026-05-07 16:25 38.16326 13.05449 2783 ft 202 kts 248°
2026-05-07 16:25 38.15777 13.03757 3316 ft 210 kts 255°
2026-05-07 16:25 38.15901 13.01929 3840 ft 215 kts 300°
2026-05-07 16:25 38.16809 13.00406 4429 ft 220 kts 309°
2026-05-07 16:26 38.17763 12.98858 5021 ft 224 kts 307°
2026-05-07 16:26 38.18707 12.97250 5688 ft 229 kts 305°
2026-05-07 16:26 38.19633 12.95603 6470 ft 230 kts 304°
2026-05-07 16:26 38.20540 12.93936 7291 ft 228 kts 303°
2026-05-07 16:27 38.21424 12.92275 8133 ft 226 kts 302°
2026-05-07 16:27 38.22294 12.90611 8981 ft 226 kts 301°
2026-05-07 16:27 38.23147 12.88962 9837 ft 225 kts 301°
2026-05-07 16:27 38.24018 12.87264 10468 ft 236 kts 300°
2026-05-07 16:28 38.24969 12.85393 10710 ft 266 kts 300°
2026-05-07 16:28 38.26022 12.83315 10926 ft 294 kts 300°
2026-05-07 16:28 38.27183 12.81019 11128 ft 321 kts 301°
2026-05-07 16:28 38.28435 12.78544 11519 ft 338 kts 301°
2026-05-07 16:29 38.29976 12.76245 12254 ft 349 kts 320°
2026-05-07 16:29 38.32123 12.74858 13149 ft 357 kts 340°
2026-05-07 16:29 38.34619 12.74448 13917 ft 367 kts 353°
2026-05-07 16:29 38.37099 12.73767 14605 ft 366 kts 334°
2026-05-07 16:30 38.39423 12.72432 15415 ft 367 kts 330°
2026-05-07 16:30 38.41740 12.71012 16218 ft 371 kts 330°
2026-05-07 16:30 38.44089 12.69579 17022 ft 375 kts 330°
2026-05-07 16:30 38.46462 12.68156 17826 ft 378 kts 330°
2026-05-07 16:31 38.48867 12.66739 18526 ft 383 kts 330°
2026-05-07 16:31 38.51300 12.65322 19205 ft 386 kts 330°
2026-05-07 16:31 38.53758 12.63901 19905 ft 389 kts 330°
2026-05-07 16:31 38.56231 12.62477 20593 ft 392 kts 330°
2026-05-07 16:32 38.58727 12.61041 21265 ft 395 kts 330°
2026-05-07 16:32 38.61245 12.59592 21909 ft 398 kts 329°
2026-05-07 16:32 38.63753 12.58147 22537 ft 401 kts 329°
2026-05-07 16:32 38.66306 12.56675 23171 ft 404 kts 329°
2026-05-07 16:33 38.68883 12.55188 23762 ft 407 kts 329°
2026-05-07 16:33 38.71466 12.53697 24284 ft 409 kts 328°
2026-05-07 16:33 38.74073 12.52189 24758 ft 413 kts 328°
2026-05-07 16:33 38.76706 12.50666 25214 ft 417 kts 328°
2026-05-07 16:34 38.79361 12.49129 25690 ft 420 kts 328°
2026-05-07 16:34 38.82038 12.47579 26161 ft 423 kts 327°
2026-05-07 16:34 38.84734 12.46015 26612 ft 427 kts 327°
2026-05-07 16:34 38.87452 12.44445 27050 ft 431 kts 328°
2026-05-07 16:35 38.90243 12.42954 27490 ft 436 kts 329°
2026-05-07 16:35 38.93043 12.41549 27973 ft 438 kts 330°
2026-05-07 16:35 38.95890 12.40156 28524 ft 439 kts 329°
2026-05-07 16:35 38.98759 12.38755 28910 ft 443 kts 329°
2026-05-07 16:36 39.01645 12.37336 29278 ft 446 kts 329°
2026-05-07 16:36 39.04550 12.35897 29676 ft 448 kts 328°
2026-05-07 16:36 39.07466 12.34445 30054 ft 451 kts 328°
2026-05-07 16:36 39.10399 12.32976 30370 ft 453 kts 328°
2026-05-07 16:37 39.13342 12.31497 30679 ft 455 kts 328°
2026-05-07 16:37 39.16307 12.30003 31033 ft 456 kts 328°
2026-05-07 16:37 39.19256 12.28520 31526 ft 454 kts 327°
2026-05-07 16:37 39.22197 12.27041 31971 ft 453 kts 327°
2026-05-07 16:38 39.25132 12.25561 32329 ft 454 kts 326°
2026-05-07 16:38 39.28069 12.24075 32684 ft 454 kts 326°
2026-05-07 16:38 39.31011 12.22586 33087 ft 454 kts 325°
2026-05-07 16:38 39.33950 12.21099 33505 ft 453 kts 325°
2026-05-07 16:39 39.36882 12.19613 33891 ft 453 kts 324°
2026-05-07 16:39 39.39816 12.18125 34286 ft 452 kts 325°
2026-05-07 16:39 39.42737 12.16645 34741 ft 448 kts 325°
2026-05-07 16:39 39.45626 12.15183 35211 ft 444 kts 325°
2026-05-07 16:40 39.48493 12.13729 35612 ft 442 kts 325°
2026-05-07 16:40 39.51311 12.12295 35968 ft 440 kts 324°
2026-05-07 16:40 39.54156 12.10843 36320 ft 439 kts 324°
2026-05-07 16:40 39.56993 12.09395 36704 ft 437 kts 324°
2026-05-07 16:41 39.59824 12.07948 36918 ft 439 kts 324°
2026-05-07 16:41 39.65541 12.05012 36907 ft 441 kts 324°
2026-05-07 16:42 39.71205 12.02125 36920 ft 432 kts 323°
2026-05-07 16:42 39.76801 11.99257 36927 ft 432 kts 323°
2026-05-07 16:43 39.82362 11.96391 36920 ft 433 kts 323°
2026-05-07 16:43 39.87970 11.93500 36942 ft 434 kts 323°
2026-05-07 16:44 39.93586 11.90603 36928 ft 434 kts 323°
2026-05-07 16:44 39.99198 11.87705 36924 ft 433 kts 323°
2026-05-07 16:45 40.04802 11.84807 36928 ft 433 kts 323°
2026-05-07 16:45 40.10364 11.81925 36929 ft 432 kts 323°
2026-05-07 16:46 40.15947 11.79026 36931 ft 431 kts 323°
2026-05-07 16:46 40.21525 11.76124 36931 ft 431 kts 323°
2026-05-07 16:47 40.27104 11.73216 36934 ft 430 kts 323°
2026-05-07 16:47 40.32670 11.70310 36962 ft 430 kts 323°
2026-05-07 16:48 40.38233 11.67399 36967 ft 430 kts 323°
2026-05-07 16:48 40.43762 11.64501 36947 ft 431 kts 323°
2026-05-07 16:49 40.49334 11.61577 36939 ft 431 kts 323°
2026-05-07 16:49 40.54905 11.58648 36966 ft 431 kts 323°
2026-05-07 16:50 40.60484 11.55708 36945 ft 432 kts 323°
2026-05-07 16:50 40.66066 11.52762 36938 ft 432 kts 323°
2026-05-07 16:51 40.71645 11.49813 36946 ft 432 kts 323°
2026-05-07 16:51 40.77224 11.46858 36946 ft 432 kts 323°
2026-05-07 16:52 40.82768 11.43916 36952 ft 432 kts 323°
2026-05-07 16:52 40.88353 11.40948 36945 ft 432 kts 323°
2026-05-07 16:53 40.93937 11.37974 36958 ft 432 kts 323°
2026-05-07 16:53 40.99516 11.34998 36945 ft 432 kts 323°
2026-05-07 16:54 41.05095 11.32015 36960 ft 432 kts 323°
2026-05-07 16:54 41.10680 11.29016 36962 ft 434 kts 327°
2026-05-07 16:55 41.16293 11.26006 36962 ft 437 kts 327°
2026-05-07 16:55 41.20995 11.23482 36962 ft 439 kts 327°
2026-05-07 16:56 41.26675 11.20426 36961 ft 442 kts 328°
2026-05-07 16:56 41.35267 11.15792 36958 ft 445 kts 328°
2026-05-07 16:57 41.41018 11.12683 36959 ft 445 kts 328°
2026-05-07 16:57 41.46753 11.09578 36960 ft 445 kts 328°
2026-05-07 16:58 41.52498 11.06459 36950 ft 445 kts 328°
2026-05-07 16:58 41.58201 11.03359 36955 ft 444 kts 328°
2026-05-07 16:59 41.63917 11.00244 36955 ft 443 kts 328°
2026-05-07 16:59 41.69626 10.97127 36969 ft 443 kts 328°
2026-05-07 17:00 41.75322 10.94007 36963 ft 442 kts 328°
2026-05-07 17:00 41.81012 10.90890 36965 ft 441 kts 328°
2026-05-07 17:01 41.86698 10.87768 36964 ft 441 kts 328°
2026-05-07 17:01 41.92378 10.84642 36976 ft 441 kts 328°
2026-05-07 17:02 41.98059 10.81509 36963 ft 441 kts 328°
2026-05-07 17:02 42.03707 10.78390 36964 ft 441 kts 328°
2026-05-07 17:03 42.09392 10.75243 36966 ft 441 kts 328°
2026-05-07 17:03 42.15079 10.72089 36970 ft 442 kts 328°
2026-05-07 17:04 42.20768 10.68928 36966 ft 442 kts 328°
2026-05-07 17:04 42.26452 10.65764 36964 ft 442 kts 328°
2026-05-07 17:05 42.32149 10.62587 36967 ft 442 kts 328°
2026-05-07 17:05 42.37833 10.59410 36967 ft 442 kts 328°
2026-05-07 17:06 42.43515 10.56228 36978 ft 442 kts 328°
2026-05-07 17:06 42.49199 10.53038 36967 ft 442 kts 328°
2026-05-07 17:07 42.54853 10.49859 37001 ft 442 kts 328°
2026-05-07 17:07 42.60547 10.46651 36979 ft 443 kts 328°
2026-05-07 17:08 42.66244 10.43435 36970 ft 443 kts 328°
2026-05-07 17:08 42.71936 10.40217 36977 ft 443 kts 328°
2026-05-07 17:09 42.77610 10.36960 37000 ft 442 kts 328°
2026-05-07 17:09 42.83272 10.33650 36980 ft 442 kts 328°
2026-05-07 17:10 42.88888 10.30360 36965 ft 441 kts 328°
2026-05-07 17:10 42.94527 10.27055 36963 ft 440 kts 328°
2026-05-07 17:11 43.00147 10.23759 36978 ft 439 kts 328°
2026-05-07 17:11 43.05753 10.20465 36975 ft 438 kts 328°
2026-05-07 17:12 43.11351 10.17169 36980 ft 438 kts 328°
2026-05-07 17:12 43.16943 10.13870 36976 ft 437 kts 328°
2026-05-07 17:13 43.22537 10.10562 36983 ft 437 kts 328°
2026-05-07 17:13 43.28120 10.07255 36979 ft 437 kts 328°
2026-05-07 17:14 43.33669 10.03962 36977 ft 437 kts 328°
2026-05-07 17:14 43.39262 10.00636 36995 ft 437 kts 328°
2026-05-07 17:15 43.44849 9.97306 36985 ft 438 kts 328°
2026-05-07 17:15 43.50444 9.93964 36983 ft 438 kts 328°
2026-05-07 17:16 43.56041 9.90616 36984 ft 438 kts 328°
2026-05-07 17:16 43.61652 9.87248 36654 ft 444 kts 328°
2026-05-07 17:17 43.64484 9.85546 36132 ft 443 kts 328°
2026-05-07 17:17 43.67295 9.83861 35639 ft 438 kts 328°
2026-05-07 17:17 43.70073 9.82196 35153 ft 432 kts 328°
2026-05-07 17:17 43.72792 9.80562 34686 ft 431 kts 328°
2026-05-07 17:18 43.75531 9.78911 34212 ft 429 kts 328°
2026-05-07 17:18 43.78258 9.77265 33710 ft 427 kts 328°
2026-05-07 17:18 43.80976 9.75622 33188 ft 425 kts 328°
2026-05-07 17:18 43.83702 9.73970 32664 ft 428 kts 328°
2026-05-07 17:19 43.86446 9.72302 32149 ft 433 kts 328°
2026-05-07 17:19 43.89213 9.70620 31635 ft 435 kts 328°
2026-05-07 17:19 43.91987 9.68938 31144 ft 434 kts 328°
2026-05-07 17:19 43.94757 9.67259 30651 ft 433 kts 328°
2026-05-07 17:20 43.97514 9.65587 30162 ft 432 kts 328°
2026-05-07 17:20 44.00265 9.63915 29613 ft 431 kts 328°
2026-05-07 17:20 44.03018 9.62237 29085 ft 437 kts 329°
2026-05-07 17:20 44.05817 9.60523 28542 ft 442 kts 329°
2026-05-07 17:21 44.08624 9.58810 27997 ft 437 kts 329°
2026-05-07 17:21 44.11395 9.57122 27468 ft 433 kts 330°
2026-05-07 17:21 44.14140 9.55448 26946 ft 429 kts 330°
2026-05-07 17:21 44.16865 9.53782 26434 ft 426 kts 330°
2026-05-07 17:22 44.19570 9.52125 25951 ft 424 kts 330°
2026-05-07 17:22 44.22232 9.50491 25468 ft 422 kts 331°
2026-05-07 17:22 44.24914 9.48843 24992 ft 421 kts 331°
2026-05-07 17:22 44.27593 9.47195 24501 ft 420 kts 332°
2026-05-07 17:23 44.30260 9.45554 24051 ft 419 kts 332°
2026-05-07 17:23 44.32928 9.43910 23587 ft 418 kts 332°
2026-05-07 17:23 44.35580 9.42275 23041 ft 416 kts 333°
2026-05-07 17:23 44.38222 9.40644 22484 ft 414 kts 333°
2026-05-07 17:24 44.40845 9.39025 21960 ft 411 kts 333°
2026-05-07 17:24 44.43453 9.37413 21436 ft 408 kts 333°
2026-05-07 17:24 44.46039 9.35813 20922 ft 405 kts 333°
2026-05-07 17:24 44.48607 9.34222 20409 ft 402 kts 333°
2026-05-07 17:25 44.51153 9.32642 19913 ft 398 kts 333°
2026-05-07 17:25 44.53675 9.31077 19425 ft 396 kts 334°
2026-05-07 17:25 44.56186 9.29516 18956 ft 393 kts 334°
2026-05-07 17:25 44.58653 9.27982 18475 ft 391 kts 334°
2026-05-07 17:26 44.61161 9.26421 17961 ft 388 kts 334°
2026-05-07 17:26 44.63590 9.24907 17428 ft 385 kts 334°
2026-05-07 17:26 44.66026 9.23388 16911 ft 382 kts 334°
2026-05-07 17:26 44.68449 9.21875 16395 ft 379 kts 334°
2026-05-07 17:27 44.70852 9.20374 15885 ft 377 kts 334°
2026-05-07 17:27 44.73248 9.18876 15393 ft 375 kts 334°
2026-05-07 17:27 44.75631 9.17380 14891 ft 373 kts 333°
2026-05-07 17:27 44.77880 9.15607 14403 ft 370 kts 324°
2026-05-07 17:28 44.79981 9.13526 13930 ft 366 kts 322°
2026-05-07 17:28 44.82005 9.11423 13423 ft 362 kts 322°
2026-05-07 17:28 44.84029 9.09339 12893 ft 356 kts 322°
2026-05-07 17:28 44.86029 9.07318 12374 ft 351 kts 323°
2026-05-07 17:29 44.88008 9.05354 11859 ft 346 kts 323°
2026-05-07 17:29 44.89965 9.03425 11360 ft 341 kts 323°
2026-05-07 17:29 44.91875 9.01546 11190 ft 327 kts 323°
2026-05-07 17:29 44.93701 8.99747 11050 ft 314 kts 323°
2026-05-07 17:30 44.95456 8.98017 10915 ft 301 kts 323°
2026-05-07 17:30 44.97260 8.96617 10764 ft 294 kts 340°
2026-05-07 17:30 44.99201 8.95869 10650 ft 284 kts 343°
2026-05-07 17:30 45.01103 8.95183 10429 ft 284 kts 342°
2026-05-07 17:31 45.03009 8.94487 10140 ft 281 kts 343°
2026-05-07 17:31 45.04869 8.93797 9857 ft 278 kts 343°
2026-05-07 17:31 45.06736 8.93096 9542 ft 276 kts 343°
2026-05-07 17:31 45.08578 8.92397 9225 ft 273 kts 342°
2026-05-07 17:32 45.10411 8.91698 8906 ft 271 kts 342°
2026-05-07 17:32 45.12222 8.91006 8603 ft 269 kts 343°
2026-05-07 17:32 45.14028 8.90314 8294 ft 268 kts 343°
2026-05-07 17:32 45.15216 8.89860 8091 ft 267 kts 344°
2026-05-07 17:33 45.17605 8.88945 7686 ft 265 kts 343°
2026-05-07 17:33 45.19379 8.88264 7389 ft 263 kts 343°
2026-05-07 17:33 45.21147 8.87585 7097 ft 262 kts 343°
2026-05-07 17:33 45.22906 8.86910 6801 ft 262 kts 344°
2026-05-07 17:34 45.24666 8.86234 6490 ft 261 kts 344°
2026-05-07 17:34 45.26422 8.85559 6230 ft 261 kts 344°
2026-05-07 17:34 45.28172 8.84886 5928 ft 260 kts 344°
2026-05-07 17:34 45.29918 8.84214 5612 ft 260 kts 344°
2026-05-07 17:35 45.31657 8.83544 5350 ft 257 kts 344°
2026-05-07 17:35 45.33379 8.82880 5094 ft 255 kts 344°
2026-05-07 17:35 45.35060 8.82232 4851 ft 253 kts 344°
2026-05-07 17:35 45.36751 8.81580 4602 ft 251 kts 344°
2026-05-07 17:36 45.38429 8.80932 4342 ft 249 kts 343°
2026-05-07 17:36 45.40099 8.80287 4118 ft 247 kts 344°
2026-05-07 17:36 45.41730 8.79656 4028 ft 238 kts 344°
2026-05-07 17:36 45.43288 8.79032 4013 ft 227 kts 342°
2026-05-07 17:37 45.44761 8.78404 3983 ft 215 kts 343°
2026-05-07 17:37 45.46190 8.77887 3875 ft 207 kts 347°
2026-05-07 17:37 45.47568 8.77480 3721 ft 197 kts 348°
2026-05-07 17:37 45.48874 8.77095 3461 ft 188 kts 347°
2026-05-07 17:38 45.50148 8.76750 3116 ft 184 kts 349°
2026-05-07 17:38 45.51390 8.76444 2803 ft 179 kts 351°
2026-05-07 17:38 45.52605 8.76154 2480 ft 176 kts 351°
2026-05-07 17:38 45.53768 8.75875 2310 ft 164 kts 349°
2026-05-07 17:39 45.54898 8.75593 2140 ft 165 kts 348°
2026-05-07 17:39 45.56044 8.75278 1899 ft 169 kts 349°
2026-05-07 17:39 45.57202 8.74968 1666 ft 167 kts 349°
2026-05-07 17:39 45.58322 8.74655 1414 ft 164 kts 348°
2026-05-07 17:40 45.59436 8.74346 1200 ft 158 kts 349°
2026-05-07 17:40 45.60482 8.74065 991 ft 152 kts 349°
2026-05-07 17:40 45.61502 8.73769 792 ft 145 kts 349°
2026-05-07 17:40 45.62403 8.73519 759 ft 110 kts 349°
2026-05-07 17:41 45.62935 8.73374 756 ft 50 kts 348°
2026-05-07 17:41 45.63152 8.73230 757 ft 27 kts 320°
2026-05-07 17:41 45.63260 8.73064 758 ft 22 kts 306°
2026-05-07 17:41 45.63346 8.72889 756 ft 19 kts 304°
2026-05-07 17:42 45.63398 8.72774 756 ft 13 kts 295°
2026-05-07 17:42 45.63410 8.72649 758 ft 14 kts 269°
2026-05-07 17:42 45.63399 8.72544 755 ft 18 kts 258°
2026-05-07 17:42 45.63376 8.72387 757 ft 15 kts 258°
2026-05-07 17:43 45.63355 8.72246 757 ft 14 kts 258°
2026-05-07 17:43 45.63336 8.72102 757 ft 16 kts 261°
2026-05-07 17:43 45.63318 8.71945 758 ft 14 kts 261°
2026-05-07 17:43 45.63298 8.71812 755 ft 13 kts 258°
2026-05-07 17:44 45.63283 8.71689 758 ft 12 kts 261°
2026-05-07 17:44 45.63266 8.71572 755 ft 12 kts 258°
2026-05-07 17:44 45.63249 8.71459 757 ft 10 kts 258°
2026-05-07 17:44 45.63207 8.71423 757 ft 8 kts 172°
2026-05-07 17:45 45.63166 8.71434 756 ft 3 kts 168°
2026-05-07 17:45 45.63156 8.71437 756 ft 0 kts 168°